Regional Weather Roundup
Issued by NWS Northern Indiana

Home | Current Version | Previous Version | Text Only | Print | Product List | Glossary On
Versions: 1 2 3 4 5 6 7 8 9 10 11 12 13 14 15 16 17 18 19 20 21 22 23 24 25 26 27 28 29 30 31 32 33 34 35 36 37 38 39 40 41 42 43 44 45 46 47 48 49 50
000
ASUS43 KIWX 312310
RWRIWX

KIWX WEATHER ROUNDUP
NATIONAL WEATHER SERVICE NORTHERN INDIANA
700 PM EDT FRI JUL 31 2015

NOTE: "FAIR" INDICATES FEW OR NO CLOUDS BELOW 12,000 FEET WITH NO
SIGNIFICANT WEATHER AND/OR OBSTRUCTIONS TO VISIBILITY.

* THESE STATIONS ARE NOT UNDER NWS QUALITY CONTROL. THEY ALSO MAY NOT
  REPORT WEATHER SUCH AS PRECIPITATION OR FOG.

INZ001>027-010000-
NORTHERN INDIANA

CITY           SKY/WX    TMP DP  RH WIND       PRES   REMARKS
GARY*          SUNNY     86  50  28 W14G29    29.93F
VALPARAISO     SUNNY     82  55  39 N9        29.94S
MICHIGAN CITY* SUNNY     79  55  44 N10       29.94S
LAPORTE*       SUNNY     82  53  36 NW10      29.94F
KNOX*          SUNNY     81  54  39 N14G20    29.93S
SOUTH BEND     SUNNY     81  52  36 NW9       29.93F
ELKHART*       SUNNY     81  48  32 NW14G23   29.93S
GOSHEN         SUNNY     80  55  42 NW18      29.92S
MONTICELLO*    SUNNY     83  57  40 NW15      29.94S
LOGANSPORT*    SUNNY     82  43  24 W9G18     29.94F
ROCHESTER*     SUNNY     86  55  35 NW7       29.93S
WARSAW*        SUNNY     81  55  41 NW15      29.92F
ANGOLA*        MOSUNNY   82  57  42 NW13      29.91F
FORT WAYNE     MOSUNNY   84  52  33 NW9       29.92F
HUNTINGTON*    MOSUNNY   82  60  47 CALM      29.92S
PERU/GRISSOM   MOSUNNY   85  56  36 W18       29.92F
MARION*        SUNNY     83  53  35 NW15G23   29.94S HAZE

$$
INZ028>050-010000-
CENTRAL INDIANA

CITY           SKY/WX    TMP DP  RH WIND       PRES   REMARKS
LAFAYETTE      SUNNY     82  58  43 W10       29.95F
KOKOMO*        SUNNY     84  57  39 NW18G24   29.94S
MUNCIE*        SUNNY     78  68  71 W8        29.94F
INDIANAPOLIS   MOSUNNY   85  63  47 W20       29.96F

$$
MIZ043>046-050>051-056>058-064>065-071>073-077>080-010000-
SOUTHWEST LOWER MICHIGAN

CITY           SKY/WX    TMP DP  RH WIND       PRES   REMARKS
BATTLE CREEK   SUNNY     80  51  36 NW15G24   29.91F
BENTON HARBOR  SUNNY     77  56  48 NW8       29.93S
COLDWATER*     MOSUNNY   79  49  35 NW16G24   29.91S
HILLSDALE*     MOSUNNY   81  53  38 W14G25    29.91S
HOLLAND        SUNNY     79  53  40 W10       29.92S
GRAND RAPIDS   MOSUNNY   80  50  34 NW18      29.89S
KALAMAZOO      SUNNY     80  51  36 NW14      29.91F
STURGIS*       MOSUNNY   79  54  41 NW12      29.92S
THREE RIVERS*  FAIR      80  50  36 NW10      29.92S

$$
OHZ001>008-015>018-024>025-010000-
NORTHWEST OHIO

CITY           SKY/WX    TMP DP  RH WIND       PRES   REMARKS
WAUSEON*       FAIR      81  54  39 NW13G25   29.89S
DEFIANCE       SUNNY     84  50  30 NW14G21   29.90S
FINDLAY        MOSUNNY   82  63  52 SW15      29.89F
TOLEDO EXPRESS SUNNY     83  52  34 W12       29.87S
TOLEDO METCALF SUNNY     85  52  32 W20       29.87S
LIMA           MOSUNNY   79  63  57 SW12      29.92F

$$
AND FOR LAKE MICHIGAN COASTAL AND OPEN LAKE BUOY OBSERVATIONS

STATION/POSITION TEMP    WIND        PRES    VSBY  WAVE
                 AIR SEA DIR/SP/G                  HT/PER
                 (F)     (DEG/KT/KT) (MB)    (MI)  (FT/S)
CALUMET HARBOR    85     280/  7/ 19   N/A
MICHIGAN CITY     78     310/ 15/ 17   N/A
BURNS HARBOR      78     330/  9/ 12 1013.9S
SAINT JOSEPH      77     310/  5/  6 1014.6F
4 MI NW BRIDGMAN  74 74   10/  6/  8   N/A           2/ 3
MICHIGAN CITY     76 74  350/ 12/ 16   N/A           3/ 4

$$
&&


USA.gov is the U.S. government's official web portal to all federal, state and local government web resources and services.